GW2644 Weather Reports


Display with metric or nautical units.
time (UTC)temp
F
wind
direction
speed
MPH
gust
MPH
rain 1hr
in
rain 24hr
in
rain mn
in
humidity
%
barometer
mb
20260905091606 65 261 0.0 0.0 0.00 0.00 0.00 93 1017.4
20260905091101 65 261 0.0 0.0 0.00 0.00 0.00 93 1017.3
20260905090600 66 261 0.0 0.0 0.00 0.00 0.00 93 1017.3
20260905090056 66 261 0.0 0.0 0.00 0.00 0.00 93 1017.3
20260905085554 66 270 0.0 0.0 0.00 0.00 0.00 93 1017.2
20260905085049 66 261 0.0 0.0 0.00 0.00 0.00 92 1017.6
20260905084544 67 261 0.0 1.0 0.00 0.00 0.00 92 1017.3
20260905084039 66 261 0.0 0.0 0.00 0.00 0.00 93 1017.4
20260905083533 66 261 0.0 0.0 0.00 0.00 0.00 92 1017.4
20260905083030 67 261 0.0 0.0 0.00 0.00 0.00 92 1017.6
20260905082525 67 261 0.0 0.0 0.00 0.00 0.00 92 1017.4
20260905082021 67 261 0.0 0.0 0.00 0.00 0.00 92 1017.6
20260905081515 67 261 0.0 0.0 0.00 0.00 0.00 92 1017.7
20260905081014 67 261 0.0 0.0 0.00 0.00 0.00 92 1017.5
20260905080509 67 261 0.0 0.0 0.00 0.00 0.00 92 1017.7
20260905080004 67 261 0.0 0.0 0.00 0.00 0.00 91 1017.7
20260905075457 67 261 0.0 0.0 0.00 0.00 0.00 91 1017.7
20260905074956 68 261 0.0 0.0 0.00 0.00 0.00 91 1017.6
20260905074452 68 261 0.0 0.0 0.00 0.00 0.00 91 1017.6
20260905073948 68 261 0.0 0.0 0.00 0.00 0.00 91 1017.7
20260905073448 68 261 0.0 0.0 0.00 0.00 0.00 91 1017.6
20260905072937 68 261 0.0 0.0 0.00 0.00 0.00 91 1017.7
20260905072432 68 261 0.0 0.0 0.00 0.00 0.00 91 1017.8
20260905071928 68 261 0.0 0.0 0.00 0.00 0.00 91 1017.6
20260905071425 68 261 0.0 0.0 0.00 0.00 0.00 91 1017.3
20260905070924 68 261 0.0 0.0 0.00 0.00 0.00 90 1017.5
20260905070421 68 261 0.0 0.0 0.00 0.00 0.00 90 1017.7
20260905065915 68 261 0.0 0.0 0.00 0.00 0.00 90 1017.4
20260905065413 69 261 0.0 0.0 0.00 0.00 0.00 89 1017.5
20260905064908 69 261 0.0 0.0 0.00 0.00 0.00 89 1017.4
20260905064403 69 294 0.0 0.0 0.00 0.00 0.00 89 1017.5
20260905063902 69 291 0.0 0.0 0.00 0.00 0.00 89 1017.5
20260905063358 69 286 0.0 0.0 0.00 0.00 0.00 90 1017.6
20260905062854 69 286 0.0 0.0 0.00 0.00 0.00 89 1017.6
20260905062353 69 286 0.0 0.0 0.00 0.00 0.00 89 1017.3
20260905061848 69 286 0.0 0.0 0.00 0.00 0.00 89 1017.5
20260905061343 69 286 0.0 0.0 0.00 0.00 0.00 88 1017.5
20260905060837 70 286 0.0 0.0 0.00 0.00 0.00 88 1017.2
20260905060334 69 286 0.0 0.0 0.00 0.00 0.00 88 1017.2
20260905055833 70 286 0.0 0.0 0.00 0.00 0.00 88 1017.5
20260905055328 70 300 0.0 2.0 0.00 0.00 0.00 87 1017.2
20260905054828 70 262 0.0 0.0 0.00 0.00 0.00 87 1017.6
20260905054325 70 270 0.0 1.0 0.00 0.00 0.00 87 1017.3
20260905053824 70 270 0.0 0.0 0.00 0.00 0.00 86 1017.1
20260905053319 70 270 0.0 1.0 0.00 0.00 0.00 86 1017.4
20260905052813 70 270 0.0 2.0 0.00 0.00 0.00 86 1017.2
20260905052308 70 270 0.0 2.0 0.00 0.00 0.00 85 1017.3
20260905051807 70 270 0.0 0.0 0.00 0.00 0.00 85 1017.2
20260905051304 70 270 0.0 0.0 0.00 0.00 0.00 84 1017.0
20260905050800 70 8 0.0 0.0 0.00 0.00 0.00 84 1017.2
20260905050256 71 261 0.0 2.0 0.00 0.00 0.00 83 1017.2
20260905045751 71 285 0.0 1.0 0.00 0.00 0.00 83 1017.6
20260905045247 71 276 0.0 2.0 0.00 0.00 0.00 83 1017.3
20260905044742 71 331 0.0 0.0 0.00 0.00 0.00 83 1017.3
20260905044237 71 331 0.0 0.0 0.00 0.00 0.00 83 1017.0
20260905043735 71 246 1.0 1.0 0.00 0.00 0.00 84 1017.0
20260905043235 71 261 0.0 3.0 0.00 0.00 0.00 83 1017.1
20260905042730 71 246 1.0 1.0 0.00 0.00 0.00 83 1017.0
20260905042229 71 257 0.0 2.0 0.00 0.00 0.00 83 1017.1
20260905041725 71 261 0.0 2.0 0.00 0.00 0.00 83 1016.8
20260905041220 71 270 0.0 1.0 0.00 0.00 0.00 83 1017.0
20260905040715 71 257 0.0 1.0 0.00 0.00 0.00 83 1016.9
20260905040214 71 257 0.0 3.0 0.00 0.00 0.00 83 1016.5
20260905035709 71 283 0.0 2.0 0.00 0.00 0.00 82 1016.5
20260905035206 72 340 0.0 1.0 0.00 0.00 0.00 82 1016.5
20260905034702 72 261 0.0 0.0 0.00 0.00 0.00 82 1016.7
20260905034201 72 270 0.0 2.0 0.00 0.00 0.00 82 1016.6
20260905033700 72 270 1.0 3.0 0.00 0.00 0.00 81 1016.4
20260905033155 72 270 0.0 2.0 0.00 0.00 0.00 81 1016.4
20260905032649 72 270 0.0 3.0 0.00 0.00 0.00 81 1016.2
20260905032144 72 276 0.0 2.0 0.00 0.00 0.00 80 1016.4
20260905031640 72 286 0.0 3.0 0.00 0.00 0.00 80 1016.3
20260905031135 73 270 0.0 1.0 0.00 0.00 0.00 79 1016.3
20260905030630 72 270 0.0 0.0 0.00 0.00 0.00 80 1016.2
20260905030126 73 270 0.0 1.0 0.00 0.00 0.00 79 1015.8
20260905025620 73 216 0.0 2.0 0.00 0.00 0.00 78 1015.9
20260905025116 73 270 0.0 1.0 0.00 0.00 0.00 78 1016.1
20260905024612 73 254 1.0 1.0 0.00 0.00 0.00 78 1016.0
20260905024106 73 270 0.0 0.0 0.00 0.00 0.00 77 1015.9
20260905023601 74 270 0.0 1.0 0.00 0.00 0.00 76 1015.9
20260905023056 74 229 0.0 0.0 0.00 0.00 0.00 75 1016.0
20260905022555 75 261 0.0 1.0 0.00 0.00 0.00 73 1016.0
20260905022051 75 346 0.0 2.0 0.00 0.00 0.00 74 1016.1
20260905021550 76 7 0.0 2.0 0.00 0.00 0.00 71 1016.0
20260905021046 76 261 0.0 0.0 0.00 0.00 0.00 70 1016.1
20260905020545 76 234 0.0 2.0 0.00 0.00 0.00 69 1016.0
20260905020041 77 90 0.0 0.0 0.00 0.00 0.00 66 1016.0
20260905015538 77 337 0.0 0.0 0.00 0.00 0.00 66 1016.0
20260905015034 77 337 0.0 1.0 0.00 0.00 0.00 66 1016.0
20260905014528 78 120 0.0 1.0 0.00 0.00 0.00 65 1015.9
20260905014024 78 243 0.0 2.0 0.00 0.00 0.00 64 1016.0
20260905013520 79 215 0.0 2.0 0.00 0.00 0.00 61 1015.8
20260905013015 80 255 0.0 2.0 0.00 0.00 0.00 61 1016.1
20260905012510 80 209 0.0 2.0 0.00 0.00 0.00 60 1016.1
20260905012007 80 180 0.0 2.0 0.00 0.00 0.00 61 1015.9
20260905011503 80 109 0.0 2.0 0.00 0.00 0.00 59 1016.2
20260905010958 80 203 0.0 2.0 0.00 0.00 0.00 58 1016.1
20260905010457 80 206 2.0 4.0 0.00 0.00 0.00 60 1016.1
20260905005954 80 229 4.0 4.0 0.00 0.00 0.00 58 1016.0
20260905005449 80 240 0.0 3.0 0.00 0.00 0.00 57 1016.2
20260905004944 80 186 0.0 2.0 0.00 0.00 0.00 56 1016.2
20260905004439 79 270 0.0 2.0 0.00 0.00 0.00 55 1016.3
20260905003934 80 203 2.0 3.0 0.00 0.00 0.00 55 1016.2
20260905003430 80 270 1.0 2.0 0.00 0.00 0.00 57 1016.3
20260905002925 80 257 0.0 2.0 0.00 0.00 0.00 55 1016.4
20260905002420 80 234 0.0 5.0 0.00 0.00 0.00 56 1016.4
20260905001919 78 180 0.0 4.0 0.00 0.00 0.00 59 1016.2
20260905001415 79 0 0.0 2.0 0.00 0.00 0.00 58 1016.2
20260905000909 79 270 2.0 4.0 0.00 0.00 0.00 57 1016.3
20260905000405 79 0 1.0 3.0 0.00 0.00 0.00 57 1016.1
20260904235900 79 249 0.0 4.0 0.00 0.00 0.00 57 1016.3
20260904235355 78 280 0.0 3.0 0.00 0.00 0.00 57 1016.2
20260904234850 79 209 2.0 5.0 0.00 0.00 0.00 57 1016.4
20260904234345 80 266 2.0 3.0 0.00 0.00 0.00 56 1016.3
20260904233841 80 225 2.0 3.0 0.00 0.00 0.00 55 1016.4
20260904233336 79 211 3.0 3.0 0.00 0.00 0.00 56 1016.3
20260904232833 80 83 0.0 3.0 0.00 0.00 0.00 55 1016.2
20260904232329 79 297 0.0 3.0 0.00 0.00 0.00 55 1016.4
20260904231824 79 105 0.0 2.0 0.00 0.00 0.00 55 1016.2
20260904231319 79 250 0.0 4.0 0.00 0.00 0.00 55 1016.2
20260904230815 79 270 0.0 6.0 0.00 0.00 0.00 58 1016.3
20260904230313 79 236 3.0 7.0 0.00 0.00 0.00 58 1016.3
20260904225808 80 247 2.0 4.0 0.00 0.00 0.00 57 1016.3
20260904225307 80 266 0.0 5.0 0.00 0.00 0.00 58 1016.5
20260904224806 80 161 4.0 4.0 0.00 0.00 0.00 56 1016.5
20260904224302 79 212 0.0 3.0 0.00 0.00 0.00 58 1016.4
20260904223801 79 292 0.0 5.0 0.00 0.00 0.00 59 1016.3
20260904223255 83 218 3.0 4.0 0.00 0.00 0.00 53 1016.5
20260904222752 81 270 0.0 3.0 0.00 0.00 0.00 56 1016.5
20260904222246 80 20 0.0 2.0 0.00 0.00 0.00 56 1016.3
20260904221741 79 270 2.0 4.0 0.00 0.00 0.00 59 1016.6
20260904221236 80 192 2.0 5.0 0.00 0.00 0.00 58 1016.4
20260904220731 79 209 0.0 2.0 0.00 0.00 0.00 59 1016.5
20260904220226 81 270 1.0 4.0 0.00 0.00 0.00 56 1016.7
20260904215726 79 117 2.0 2.0 0.00 0.00 0.00 58 1016.5
20260904215221 78 240 1.0 3.0 0.00 0.00 0.00 60 1016.4
20260904214716 79 212 0.0 4.0 0.00 0.00 0.00 60 1016.6
20260904214212 78 202 5.0 7.0 0.00 0.00 0.00 60 1016.5
20260904213710 79 126 1.0 2.0 0.00 0.00 0.00 58 1016.6
20260904213206 79 259 2.0 3.0 0.00 0.00 0.00 58 1016.7
20260904212701 80 214 0.0 3.0 0.00 0.00 0.00 58 1016.6
20260904212156 79 277 0.0 6.0 0.00 0.00 0.00 59 1016.7
20260904211655 81 90 0.0 4.0 0.00 0.00 0.00 56 1016.6
20260904211150 80 270 0.0 3.0 0.00 0.00 0.00 56 1016.6
20260904210645 81 238 0.0 3.0 0.00 0.00 0.00 57 1016.5
20260904210141 80 219 3.0 4.0 0.00 0.00 0.00 57 1016.8
20260904205636 79 248 2.0 5.0 0.00 0.00 0.00 58 1016.5
20260904205133 79 246 3.0 4.0 0.00 0.00 0.00 58 1016.8
20260904204629 80 270 1.0 3.0 0.00 0.00 0.00 55 1016.7
20260904204125 81 236 2.0 4.0 0.00 0.00 0.00 56 1016.8
20260904203620 80 192 0.0 2.0 0.00 0.00 0.00 55 1016.9
20260904203117 81 216 2.0 4.0 0.00 0.00 0.00 55 1016.8
20260904202613 80 246 3.0 3.0 0.00 0.00 0.00 57 1016.9
20260904202109 77 261 0.0 3.0 0.00 0.00 0.00 58 1016.8
20260904201608 79 74 1.0 2.0 0.00 0.00 0.00 59 1017.1
20260904201103 78 180 0.0 4.0 0.00 0.00 0.00 60 1017.0
20260904200602 78 201 0.0 2.0 0.00 0.00 0.00 59 1017.0
20260904200058 78 201 3.0 4.0 0.00 0.00 0.00 59 1017.1
20260904195555 80 221 0.0 4.0 0.00 0.00 0.00 59 1017.0
20260904195050 78 202 0.0 5.0 0.00 0.00 0.00 60 1017.0
20260904194544 79 90 0.0 3.0 0.00 0.00 0.00 57 1017.1
20260904194040 77 74 1.0 2.0 0.00 0.00 0.00 60 1017.3
20260904193540 76 270 0.0 4.0 0.00 0.00 0.00 61 1017.5
20260904193037 77 0 2.0 3.0 0.00 0.00 0.00 61 1017.4
20260904192536 77 106 0.0 2.0 0.00 0.00 0.00 61 1017.2
20260904192032 77 75 0.0 3.0 0.00 0.00 0.00 61 1017.7
20260904191528 77 212 0.0 3.0 0.00 0.00 0.00 61 1017.6
20260904191025 75 192 1.0 3.0 0.00 0.00 0.00 63 1017.6
20260904190520 77 240 1.0 4.0 0.00 0.00 0.00 63 1017.7
20260904190016 74 254 0.0 3.0 0.00 0.00 0.00 64 1017.9
20260904185512 74 262 0.0 3.0 0.00 0.00 0.00 64 1017.8
20260904185007 77 229 2.0 4.0 0.00 0.00 0.00 63 1017.9
20260904184506 78 208 0.0 3.0 0.00 0.00 0.00 62 1018.1
20260904184001 75 239 2.0 4.0 0.00 0.00 0.00 64 1017.9
20260904183456 76 282 2.0 5.0 0.00 0.00 0.00 63 1018.1
20260904182951 74 71 1.0 1.0 0.00 0.00 0.00 65 1018.1
20260904182447 75 238 3.0 4.0 0.00 0.00 0.00 65 1018.2
20260904181947 76 214 4.0 4.0 0.00 0.00 0.00 61 1017.9
20260904181443 76 206 1.0 2.0 0.00 0.00 0.00 61 1017.9
20260904180937 75 342 0.0 1.0 0.00 0.00 0.00 60 1017.8
20260904180432 75 106 0.0 2.0 0.00 0.00 0.00 61 1017.9
20260904175926 75 90 0.0 1.0 0.00 0.00 0.00 62 1018.2
20260904175425 75 257 2.0 2.0 0.00 0.00 0.00 61 1018.2
20260904174919 75 145 0.0 0.0 0.00 0.00 0.00 62 1018.1
20260904174415 75 324 0.0 2.0 0.00 0.00 0.00 63 1018.4
20260904173911 74 270 0.0 1.0 0.00 0.00 0.00 64 1018.2
20260904173406 74 145 1.0 2.0 0.00 0.00 0.00 65 1018.2
20260904172902 74 114 0.0 0.0 0.00 0.00 0.00 66 1018.3
20260904172401 73 263 0.0 0.0 0.00 0.00 0.00 66 1018.1
20260904171856 74 201 0.0 3.0 0.00 0.00 0.00 65 1018.0
20260904171351 71 235 0.0 2.0 0.00 0.00 0.00 67 1018.0
20260904170848 72 107 0.0 2.0 0.00 0.00 0.00 69 1018.2
20260904170343 70 270 0.0 2.0 0.00 0.00 0.00 70 1018.1
20260904165838 72 225 0.0 2.0 0.00 0.00 0.00 68 1017.9
20260904165337 70 270 2.0 2.0 0.00 0.00 0.00 71 1017.8
20260904164832 71 352 0.0 4.0 0.00 0.00 0.00 71 1017.9
20260904164327 71 294 0.0 2.0 0.00 0.00 0.00 70 1017.8
20260904163823 72 228 2.0 3.0 0.00 0.00 0.00 71 1017.7
20260904163318 71 209 0.0 2.0 0.00 0.00 0.00 71 1018.0
20260904162817 69 234 0.0 3.0 0.00 0.00 0.00 73 1017.8
20260904162312 71 188 0.0 0.0 0.00 0.00 0.00 71 1017.6
20260904161808 72 188 0.0 0.0 0.00 0.00 0.00 71 1017.8
20260904161307 72 270 0.0 1.0 0.00 0.00 0.00 72 1017.8
20260904160803 71 90 0.0 1.0 0.00 0.00 0.00 76 1017.9
20260904160258 69 235 0.0 3.0 0.00 0.00 0.00 78 1017.7
20260904155758 69 270 0.0 2.0 0.00 0.00 0.00 78 1017.7
20260904155258 69 221 0.0 0.0 0.00 0.00 0.00 81 1017.6
20260904154756 69 294 0.0 2.0 0.00 0.00 0.00 81 1017.5
20260904154252 69 246 0.0 0.0 0.00 0.00 0.00 83 1017.4
20260904153747 69 270 0.0 2.0 0.00 0.00 0.00 83 1017.6
20260904153243 69 270 0.0 0.0 0.00 0.00 0.00 83 1017.3
20260904152739 68 278 0.0 0.0 0.00 0.00 0.00 84 1017.4
20260904152233 68 345 0.0 1.0 0.00 0.00 0.00 85 1017.5
20260904151728 68 174 0.0 1.0 0.00 0.00 0.00 85 1017.5
20260904151227 68 135 0.0 2.0 0.00 0.00 0.00 87 1017.5
20260904150723 67 145 0.0 1.0 0.00 0.00 0.00 87 1017.5
20260904150218 67 90 0.0 0.0 0.00 0.00 0.00 87 1017.6
20260904145716 67 144 0.0 4.0 0.00 0.00 0.00 88 1017.6
20260904145212 67 90 0.0 0.0 0.00 0.00 0.00 89 1017.4
20260904144708 66 90 0.0 2.0 0.00 0.00 0.00 89 1017.4
20260904144203 66 106 0.0 0.0 0.00 0.00 0.00 90 1017.4
20260904143658 66 106 0.0 2.0 0.00 0.00 0.00 91 1017.4
20260904143155 65 142 0.0 0.0 0.00 0.00 0.00 92 1017.3
20260904142651 65 142 0.0 2.0 0.00 0.00 0.00 93 1017.3
20260904142147 65 157 0.0 0.0 0.00 0.00 0.00 94 1017.2
20260904141642 64 157 0.0 2.0 0.00 0.00 0.00 94 1017.2
20260904141137 64 180 0.0 0.0 0.00 0.00 0.00 94 1017.2
20260904140633 64 270 0.0 0.0 0.00 0.00 0.00 95 1016.9
20260904140128 64 270 0.0 0.0 0.00 0.00 0.00 95 1016.8
20260904135626 63 270 0.0 0.0 0.00 0.00 0.00 95 1017.0
20260904135123 63 270 0.0 0.0 0.00 0.00 0.00 95 1016.9
20260904134618 63 270 0.0 0.0 0.00 0.00 0.00 95 1016.9
20260904134117 63 270 0.0 0.0 0.00 0.00 0.00 95 1016.8
20260904133612 64 270 0.0 0.0 0.00 0.00 0.00 95 1016.8
20260904133108 64 270 0.0 0.0 0.00 0.00 0.00 95 1016.8
20260904132608 64 270 0.0 0.0 0.00 0.00 0.00 95 1016.9
20260904132103 64 270 0.0 0.0 0.00 0.00 0.00 95 1016.9
20260904131557 64 270 0.0 0.0 0.00 0.00 0.00 95 1016.8
20260904131053 64 270 0.0 0.0 0.00 0.00 0.00 95 1016.6
20260904130552 64 270 0.0 0.0 0.00 0.00 0.00 95 1016.9
20260904130047 63 270 0.0 0.0 0.00 0.00 0.00 95 1016.8
20260904125543 64 270 0.0 0.0 0.00 0.00 0.00 95 1016.7
20260904125038 64 270 0.0 0.0 0.00 0.00 0.00 95 1016.7
20260904124533 64 270 0.0 0.0 0.00 0.00 0.00 95 1016.8
20260904124028 64 270 0.0 0.0 0.00 0.00 0.00 95 1016.7
20260904123523 64 270 0.0 0.0 0.00 0.00 0.00 94 1016.4
20260904123018 63 270 0.0 0.0 0.00 0.00 0.00 94 1016.7
20260904122513 63 270 0.0 0.0 0.00 0.00 0.00 94 1016.5
20260904122008 64 270 0.0 0.0 0.00 0.00 0.00 94 1016.5
20260904121503 64 246 0.0 0.0 0.00 0.00 0.00 94 1016.5
20260904120959 64 246 0.0 0.0 0.00 0.00 0.00 94 1016.5
20260904120455 64 180 0.0 0.0 0.00 0.00 0.00 94 1016.4
20260904115949 64 180 0.0 0.0 0.00 0.00 0.00 94 1016.4
20260904115446 64 180 0.0 0.0 0.00 0.00 0.00 94 1016.4
20260904114945 64 180 0.0 0.0 0.00 0.00 0.00 94 1016.3
20260904114440 64 180 0.0 0.0 0.00 0.00 0.00 94 1016.4
20260904113936 64 180 0.0 0.0 0.00 0.00 0.00 94 1016.5
20260904113435 64 180 0.0 0.0 0.00 0.00 0.00 94 1016.5
20260904112933 64 180 0.0 0.0 0.00 0.00 0.00 94 1016.5